Regional Weather Roundup
Issued by NWS

Home | Current Version | Previous Version | Graphics & Text | Print | Product List | Glossary On
Versions: 1 2 3 4 5 6 7 8 9 10 11 12 13 14 15 16 17 18 19 20 21 22 23 24 25 26 27 28 29 30 31 32 33 34 35 36 37 38 39 40 41 42 43 44 45 46 47 48 49 50
000
ASUS43 KOAX 171210
RWRNE

WEATHER ROUNDUP FOR NEBRASKA
NATIONAL WEATHER SERVICE OMAHA NE
700 AM CDT THU AUG 17 2017

NOTES: SATELLITE DATA IS BEING USED TO AUGMENT CLOUD COVER ABOVE
       12000 FEET.
       "FAIR" INDICATES FEW OR NO CLOUDS BELOW 12,000 FEET WITH NO
       SIGNIFICANT WEATHER AND/OR OBSTRUCTIONS TO VISIBILITY.


NEZ001>004-019>022-054>056-171300-
NEBRASKA PANHANDLE

CITY           SKY/WX    TMP DP  RH WIND       PRES   REMARKS
SCOTTSBLUFF    CLEAR     53  49  86 E7        30.06S
6HR MIN TEMP:  53; 6HR MAX TEMP:  58;

ALLIANCE       CLEAR     48  45  89 S3        30.05S
6HR MIN TEMP:  47; 6HR MAX TEMP:  53;

CHADRON        CLEAR     49  47  93 CALM      29.99S
6HR MIN TEMP:  49; 6HR MAX TEMP:  57;

GORDON         FAIR      55  49  79 SW8       30.03R
6HR MIN TEMP:  48; 6HR MAX TEMP:  56;

KIMBALL        CLEAR     50  50  99 SW7       30.13R
SIDNEY         CLEAR     53  51  93 SW10      30.11R
6HR MIN TEMP:  49; 6HR MAX TEMP:  54;

$$

NEZ057>060-069>072-079>082-171300-
SOUTHWEST NEBRASKA

CITY           SKY/WX    TMP DP  RH WIND       PRES   REMARKS
NORTH PLATTE   CLEAR     51  51 100 CALM      30.06R
6HR MIN TEMP:  50; 6HR MAX TEMP:  57;

IMPERIAL       CLEAR     52  50  93 W6        30.09R
6HR MIN TEMP:  52; 6HR MAX TEMP:  59;

LEXINGTON      CLEAR     53  51  93 CALM      30.05R
MCCOOK         CLEAR     54  54 100 SW5       30.07R
6HR MIN TEMP:  54; 6HR MAX TEMP:  59;

OGALLALA       CLEAR     49  49  97 CALM      30.08R
$$

NEZ005>010-023>029-035>040-094-171300-
NORTH CENTRAL NEBRASKA

CITY           SKY/WX    TMP DP  RH WIND       PRES   REMARKS
VALENTINE      CLEAR     51  47  86 W6        30.00R
6HR MIN TEMP:  50; 6HR MAX TEMP:  55;

AINSWORTH      CLEAR     53  50  90 W8        30.01R
BROKEN BOW     CLEAR     54  50  86 CALM      30.02R
6HR MIN TEMP:  52; 6HR MAX TEMP:  60;

O`NEILL        CLEAR     54  52  94 W8        29.97R
ORD            CLEAR     51  49  92 CALM      29.99R
6HR MIN TEMP:  51; 6HR MAX TEMP:  60;

THEDFORD       CLEAR     51  50  95 W5        30.03R
$$

NEZ041-046>049-061>064-073>077-083>087-171300-
SOUTH CENTRAL NEBRASKA

CITY           SKY/WX    TMP DP  RH WIND       PRES   REMARKS
GRAND ISLAND   CLEAR     56  55  97 W10       30.00R
6HR MIN TEMP:  56; 6HR MAX TEMP:  61;

AURORA         CLEAR     56  56  99 W7        29.99R
HASTINGS       CLEAR     56  53  90 W8        30.02R
6HR MIN TEMP:  55; 6HR MAX TEMP:  61;

HEBRON         CLEAR     59  58  95 W8        29.99R
HOLDREGE       CLEAR     55  53  90 W3        30.05R
KEARNEY        CLEAR     56  53  90 SW9       30.04R
YORK           CLEAR     57  57 100 W6        29.98R
$$

NEZ011>018-030>034-042>045-171300-
NORTHEAST NEBRASKA

CITY           SKY/WX    TMP DP  RH WIND       PRES   REMARKS
NORFOLK        CLEAR     59  55  87 W13       29.93R
6HR MIN TEMP:  58; 6HR MAX TEMP:  65;

ALBION         CLEAR     56  54  92 NW6       29.96R
BLAIR          RAIN      62  60  93 W7        29.89R
COLUMBUS       CLEAR     59  56  89 W7        29.95R
FREMONT        CLEAR     61  59  91 W10       29.91R
TEKAMAH        PTCLDY    62  59  90 W8        29.89R
6HR MIN TEMP:  63; 6HR MAX TEMP:  66;

WAYNE          CLEAR     59  57  92 W8        29.90R
$$

NEZ050>053-065>068-078-088>093-171300-
SOUTHEAST NEBRASKA

CITY           SKY/WX    TMP DP  RH WIND       PRES   REMARKS
LINCOLN        CLEAR     63  58  83 W8        29.95R
6HR MIN TEMP:  63; 6HR MAX TEMP:  66;

OMAHA EPPLEY   PTCLDY    65  59  81 W12       29.89R
6HR MIN TEMP:  65; 6HR MAX TEMP:  68;

BEATRICE       CLEAR     60  59  96 W5        29.95S
FALLS CITY     CLEAR     63  61  93 W10       29.90R
6HR MIN TEMP:  63; 6HR MAX TEMP:  69;

NEBRASKA CITY  CLEAR     62  62 100 W10       29.91R
PLATTSMOUTH    CLEAR     62  59  92 W8        29.90R
$$

NEZ044-045-051>053-067-171300-
OMAHA AREA

CITY           SKY/WX    TMP DP  RH WIND       PRES   REMARKS
OMAHA EPPLEY   PTCLDY    65  59  81 W12       29.89R
6HR MIN TEMP:  65; 6HR MAX TEMP:  68;

BLAIR          RAIN      62  60  93 W7        29.89R
FREMONT        CLEAR     61  59  91 W10       29.91R
MILLARD        CLEAR     64  60  87 W7        29.90R
OFFUTT AFB     CLEAR     63  59  88 W8        29.89R
PLATTSMOUTH    CLEAR     62  59  92 W8        29.90R
WAHOO          FAIR      62  60  91 W14       29.92R
$$




USA.gov is the U.S. government's official web portal to all federal, state and local government web resources and services.